Presure
142 163 178 191 197 125 167 94 203 110 211 125 197 129 196 120 194 194 200 175 195 198 201 200 153 192 116 145 126 206 137 205 175 216 199 192 144 207 217 197 208 206 151 157 160
152 184 166 178 147 155 164 194 193 169 171 197 139 194 203 195 180 192 163 179 140 131 89 168 150 104 123 131 196 195 190 154 160 173 211 211 172 215 158 220 172 182 184 204 192
179 162 138 181 137 186 167 191 168 183 171 182 103 160 195 116 187 124 188 181 118 132 140 141 110 180 126 99 171 159 199 198 190 197 184 196 210 204 214 207 198 149 207 188 101
176 163 140 128 181 201 196 185 183 173 191 193 194 144 185 184 194 105 183 194 121 106 129 130 165 188 196 188 116 175 163 147 137 195 190 189 198 196 207 214 206 203 206 190 75
185 170 173 177 131 146 195 189 169 213 199 187 209 175 164 199 129 145 146 141 191 156 155 187 137 192 208 185 203 194 177 200 192 175 127 185 166 175 151 204 209 204 189 73 192
169 176 157 132 154 201 199 191 183 150 166 140 204 194 210 207 185 206 198 149 198 198 158 123 191 203 148 201 180 198 184 162 170 197 191 194 183 192 185 133 184 203 192 207 170
191 177 159 178 168 186 149 209 214 209 199 212 206 205 203 209 209 195 144 195 199 204 125 198 115 191 197 187 172 192 209 217 198 191 197 188 197 198 144 137 205 176 117 139 208
204 176 145 121 185 188 228 221 210 213 215 194 208 205 209 205 214 209 211 205 213 147 206 205 183 213 223 179 211 208 223 214 123 96 189 206 199 188 188 186 188 186 184 193 195
192 153 166 161 195 169 190 219 213 215 201 209 210 208 208 205 212 214 217 216 194 224 211 198 217 160 215 196 238 245 230 219 181 209 209 211 207 202 197 197 199 208 208 213 193
205 162 183 208 227 208 162 260 157 245 237 214 213 210 214 242 195 224 236 237 237 238 235 244 227 240 239 225 244 234 258 235 208 238 238 244 253 68 212 190 202 193 199 216 209
193 208 197 173 220 225 218 237 225 207 253 225 231 225 207 247 247 251 312 267 252 253 260 268 284 305 292 153 266 280 258 253 236 226 245 236 277 256 246 239 212 201 199 204 204
145 207 217 189 172 178 213 190 230 234 172 246 218 232 232 251 236 222 252 233 238 272 370 366 131 65 66 297 340 305 245 320 300 261 225 218 269 264 251 251 241 224 217 208 203
148 183 134 194 217 178 169 226 201 218 229 245 236 234 218 221 244 244 253 286 342 392 463 571 518 527 327 159 412 308 420 293 310 292 268 259 267 255 242 248 240 226 217 219 219
185 152 148 198 172 194 207 225 225 216 241 234 246 230 252 233 257 273 288 134 354 427 446 441 414 408 394 449 487 578 485 410 327 268 274 262 262 268 253 248 249 240 227 214 214
144 210 171 207 207 179 238 225 210 230 234 245 242 242 253 253 268 273 326 377 439 431 424 397 378 368 376 383 491 553 461 400 354 298 294 278 267 256 261 68 236 224 222 213 212
209 209 177 205 193 205 187 218 213 231 242 244 249 249 256 258 279 317 357 392 415 390 384 379 358 359 353 444 464 522 461 370 348 316 302 287 283 270 261 251 251 232 222 219 219
208 205 210 206 210 215 221 223 219 231 228 238 232 235 250 284 309 347 386 383 411 357 356 337 332 328 355 420 460 394 364 341 334 323 303 296 286 264 255 246 258 249 233 232 230
213 196 211 208 211 225 235 213 225 231 245 229 237 246 273 308 339 383 356 381 349 341 328 330 318 315 349 345 427 371 354 330 329 320 313 299 311 274 270 253 258 256 250 245 247
202 201 223 212 216 218 212 232 214 233 239 241 244 287 302 328 365 375 354 336 339 347 320 319 315 310 354 322 355 403 356 336 326 341 309 297 292 285 277 258 261 257 245 242 244
220 208 220 213 219 217 215 223 230 232 237 243 265 285 327 325 386 353 350 323 328 318 307 311 299 300 304 320 345 339 304 298 301 295 291 295 284 286 276 276 270 261 235 236 242
220 212 220 217 217 225 222 225 234 238 244 281 261 291 329 397 358 338 336 325 297 321 303 299 288 279 277 290 330 316 300 290 280 277 280 273 270 269 270 266 264 267 269 266 271
221 221 225 217 222 227 224 228 242 250 245 292 301 306 398 381 350 315 331 305 313 342 306 305 285 280 278 292 311 293 284 269 276 285 275 257 250 252 251 255 253 250 251 244 252
235 211 223 213 217 228 236 240 245 266 269 285 276 316 423 385 337 309 314 319 284 294 294 289 280 306 285 274 302 287 274 269 266 272 263 249 244 253 245 240 243 240 237 247 255
245 231 231 232 223 236 250 231 269 268 272 284 289 321 392 340 327 313 307 297 313 299 288 291 280 284 292 293 285 278 275 275 267 263 257 245 242 238 235 236 233 233 241 243 247
242 245 252 232 246 248 262 264 248 256 272 277 297 329 377 346 332 323 313 303 299 297 278 279 292 289 280 288 280 280 274 271 264 258 253 244 241 236 232 231 231 234 233 242 244
222 235 225 234 243 259 258 256 261 259 269 269 286 322 297 301 303 301 299 322 311 299 284 283 283 270 265 277 280 264 271 266 256 250 251 245 244 235 224 240 246 253 234 244 260
254 220 233 236 253 259 248 243 257 260 258 274 275 304 292 297 291 292 285 284 287 331 285 280 277 265 271 268 280 268 252 264 265 255 247 246 246 232 222 222 229 229 233 227 236
Wind_Speed
42 46 46 45 45 51 59 31 54 56 51 58 56 45 62 62 64 59 62 58 73 72 69 72 71 80 58 63 63 76 56 63 80 61 80 92 57 78 63 74 53 67 76 77 71
46 45 51 50 46 48 53 53 57 55 57 57 54 62 60 66 61 69 61 67 57 59 38 74 72 41 64 60 83 83 80 67 67 68 67 70 72 73 43 53 72 68 74 49 68
51 64 48 52 56 58 58 59 68 63 62 64 51 59 64 67 73 59 72 72 59 61 61 61 42 80 54 37 80 69 73 76 77 79 77 77 69 76 69 60 45 73 60 75 38
55 51 59 45 60 65 66 62 67 65 70 69 71 61 74 74 80 47 74 81 65 50 61 56 72 83 87 90 55 76 78 63 64 84 86 80 77 79 75 60 61 65 68 59 27
65 58 60 63 42 49 71 71 68 73 75 75 73 75 62 76 58 70 67 66 88 81 83 92 58 96 88 88 97 89 90 90 87 88 74 88 76 79 67 75 64 62 59 24 67
61 66 72 49 52 75 74 75 72 49 56 50 75 75 76 82 77 81 83 74 84 93 74 82 90 100 81 98 85 104 95 77 83 87 86 90 90 88 77 72 73 67 73 64 64
80 73 73 71 66 80 55 77 78 80 74 79 78 77 80 80 85 87 59 93 94 92 75 102 72 98 108 100 96 103 107 106 97 94 92 99 93 82 80 57 81 70 45 43 65
82 77 53 50 83 71 74 79 80 83 84 73 80 81 85 85 90 91 93 93 102 80 105 106 102 114 117 87 113 115 118 106 58 26 88 108 90 85 95 94 89 88 76 75 70
86 62 74 78 75 58 63 77 80 84 82 85 85 86 89 89 95 97 98 97 94 107 106 110 118 81 118 98 121 123 115 110 102 108 105 110 96 93 100 99 94 91 85 78 75
85 69 81 77 76 77 53 80 55 74 82 92 91 89 94 94 93 105 108 107 109 111 110 103 123 125 121 110 113 112 120 107 85 107 113 111 98 19 102 100 97 91 85 82 76
88 94 74 83 89 90 86 85 79 78 90 83 83 83 86 84 85 94 96 94 99 102 103 105 107 106 109 48 116 115 103 116 107 106 111 110 91 90 94 99 100 94 89 84 79
57 96 90 84 83 76 90 77 91 86 76 88 79 82 86 83 81 92 95 95 101 101 102 95 23 12 13 102 104 107 101 107 97 100 80 80 99 92 98 94 94 96 93 86 80
69 83 55 88 96 74 79 98 84 90 88 93 85 84 83 84 91 88 96 103 107 85 65 24 32 26 29 35 43 39 85 97 95 95 102 102 96 94 93 92 90 91 90 90 87
87 76 66 94 79 71 88 100 96 93 103 87 93 88 97 84 100 104 109 35 97 58 35 25 36 20 23 22 40 47 61 74 92 97 101 100 97 92 91 92 85 85 88 85 83
67 104 80 100 98 78 98 102 83 102 101 99 96 90 97 97 100 108 106 82 42 30 9 15 23 20 19 22 26 33 55 66 76 96 99 100 99 90 87 6 82 82 85 88 88
104 107 87 102 90 85 85 98 87 104 105 104 101 97 107 107 112 102 88 48 29 18 2 5 13 13 20 14 11 18 38 61 71 90 98 96 95 89 84 79 81 84 86 89 92
106 103 106 100 105 107 107 104 100 107 91 102 87 93 103 106 99 84 35 31 5 16 5 8 13 13 21 9 27 35 49 52 65 79 87 89 88 72 79 81 81 81 86 90 91
106 92 110 104 102 113 112 91 103 104 111 92 97 104 108 98 82 35 41 9 9 8 2 10 10 4 10 5 17 43 52 56 61 62 57 66 64 66 76 80 79 80 84 83 84
97 97 107 104 106 108 95 112 91 109 112 108 108 111 97 80 50 21 24 20 6 10 9 6 7 4 10 8 16 29 44 53 50 40 43 49 51 61 68 76 74 71 73 78 80
107 103 105 103 105 103 100 108 107 105 108 103 108 98 79 70 19 22 22 11 7 5 9 9 5 13 8 0 11 24 37 35 35 37 37 35 43 45 58 56 61 62 74 78 76
105 105 106 105 104 103 98 106 112 108 106 108 93 84 67 17 22 25 13 9 13 14 13 14 10 14 11 9 8 27 33 34 36 38 37 34 36 44 42 42 43 44 49 54 57
103 107 106 97 102 108 104 107 116 112 101 88 76 69 29 15 19 22 12 6 6 7 21 21 17 17 16 11 18 32 37 40 40 38 38 35 44 44 43 42 43 44 46 58 53
104 94 103 94 96 108 111 105 99 93 87 76 71 64 20 14 15 16 12 9 3 7 10 15 16 20 26 25 22 36 40 42 41 41 44 48 48 42 42 42 41 43 48 50 49
90 100 102 103 92 98 102 89 78 76 72 67 61 50 17 9 7 13 10 1 3 17 18 22 22 18 21 20 28 35 39 45 45 45 47 49 47 44 45 45 41 48 49 49 47
79 80 82 83 85 89 76 73 68 68 64 60 56 37 17 11 6 7 15 9 8 24 22 22 24 22 19 14 27 34 41 46 45 48 50 49 49 47 48 49 47 50 53 53 53
67 76 69 73 72 73 67 66 62 61 58 55 52 30 30 22 12 11 10 8 8 25 26 27 30 28 29 28 28 36 40 45 49 51 54 50 54 52 51 45 51 55 58 51 53
76 60 77 75 73 69 61 60 58 53 53 50 47 30 27 22 15 8 8 8 8 17 28 31 30 31 33 32 26 32 40 46 54 56 53 56 60 57 57 60 59 55 57 47 44
Wind_Direction
268 271 263 276 274 268 266 268 271 266 270 258 267 264 265 273 262 262 261 266 259 259 261 261 262 260 264 264 264 259 258 261 262 256 258 263 263 260 257 262 256 263 267 270 266
273 273 278 268 278 272 271 269 265 261 261 265 269 263 267 266 264 265 262 263 268 267 257 261 260 267 260 267 260 260 260 260 262 262 256 254 261 262 255 256 264 262 266 259 265
272 261 266 278 275 277 268 275 269 263 265 262 275 264 262 262 262 261 266 265 265 263 261 261 260 261 275 255 260 262 262 259 259 260 259 259 264 261 261 256 253 265 256 264 239
272 274 279 263 278 285 279 273 266 272 265 263 262 267 262 262 261 270 263 264 257 273 261 275 261 264 262 264 283 270 270 256 269 257 259 260 260 262 266 264 253 256 258 253 263
276 270 274 282 267 274 279 276 275 276 270 269 271 269 268 265 266 253 269 257 264 264 265 263 276 262 263 266 264 263 267 263 262 269 267 264 266 260 268 265 257 254 257 264 254
276 275 267 276 277 284 282 276 277 271 275 279 270 270 271 268 267 267 267 269 266 265 263 262 268 263 270 260 270 261 264 264 266 259 261 262 265 263 264 260 261 254 255 253 255
278 278 264 280 278 282 271 280 277 276 273 272 272 272 271 270 267 266 263 264 265 261 256 264 276 264 263 269 264 259 259 261 262 261 261 265 262 263 258 262 259 258 260 258 250
276 274 278 253 280 279 278 276 279 277 276 273 274 272 271 270 270 267 267 267 266 264 264 261 269 263 263 261 259 262 260 261 261 344 267 260 262 264 262 263 261 262 258 256 255
272 279 270 267 282 274 286 277 278 277 276 275 274 274 274 272 274 272 269 267 267 267 265 270 268 265 263 265 263 263 263 265 257 262 260 259 259 256 259 260 259 259 259 254 255
286 283 282 284 286 290 282 275 270 283 279 274 276 276 278 275 274 274 274 273 271 270 269 272 264 265 267 270 268 267 265 260 260 259 259 260 259 251 254 261 257 260 258 257 252
285 287 276 259 291 289 291 289 284 276 287 275 275 279 279 282 283 281 292 278 274 274 272 270 269 268 265 259 261 259 257 257 261 261 259 261 246 244 247 247 254 260 260 257 255
279 287 285 289 280 265 289 274 289 288 284 287 285 283 281 291 284 280 287 279 277 280 290 283 254 223 258 261 257 255 266 251 249 247 246 247 244 240 248 247 248 253 257 261 259
266 280 259 275 286 276 277 287 278 290 289 290 289 289 283 285 294 289 288 294 297 295 291 295 285 282 271 266 237 240 239 249 245 243 244 244 242 242 247 244 244 252 256 257 258
274 272 270 278 270 274 287 288 289 291 293 292 294 289 298 292 301 302 300 278 302 297 293 279 278 277 285 292 232 237 223 225 237 241 238 241 243 238 238 243 243 245 249 256 256
275 278 278 281 283 265 282 287 288 293 295 296 296 298 302 303 305 303 306 307 295 289 299 271 252 278 287 293 245 243 210 215 224 234 236 237 238 240 238 227 245 247 246 251 252
275 276 273 281 276 284 280 287 291 293 295 298 300 302 305 306 306 308 311 304 295 279 238 292 301 312 303 287 224 159 195 206 215 227 233 235 235 237 239 240 237 240 243 245 246
270 275 276 280 281 282 284 287 292 293 296 298 301 304 305 307 309 312 294 309 284 288 352 48 29 7 326 335 139 171 193 200 213 225 232 235 238 238 239 239 238 236 237 239 242
265 271 273 276 280 280 283 289 292 296 295 299 303 303 305 308 312 301 300 327 282 272 187 62 356 341 15 249 180 179 188 199 213 224 232 238 241 237 234 238 237 234 235 238 238
267 271 269 274 278 281 286 285 292 293 296 299 300 305 308 313 309 279 281 303 295 153 155 133 57 63 64 172 229 199 191 200 210 216 225 232 232 235 235 234 239 239 237 237 238
260 269 270 274 275 281 284 286 291 294 296 299 301 304 311 314 274 269 283 279 278 278 222 150 149 76 72 106 226 198 198 198 206 207 215 216 224 226 235 238 241 236 239 240 237
262 266 268 272 276 278 283 287 290 294 298 299 301 308 319 270 273 285 270 277 269 220 216 205 204 228 191 180 197 193 189 191 198 206 207 208 213 223 226 228 231 232 235 239 241
261 266 266 274 276 277 283 287 289 292 297 304 308 313 307 270 258 294 286 317 350 271 187 201 205 211 198 187 183 189 188 192 203 196 190 197 221 216 224 225 224 228 231 236 239
258 271 268 274 278 279 282 285 291 296 297 303 307 323 313 270 244 284 290 298 227 184 177 174 207 155 199 202 191 192 193 196 199 191 189 200 216 214 221 228 226 227 229 241 236
262 264 266 269 276 280 283 287 294 298 301 308 315 324 325 306 272 268 287 174 52 185 203 185 205 197 170 177 190 191 198 199 196 193 194 203 212 217 223 228 229 231 235 237 240
267 269 272 273 281 284 289 293 292 296 304 311 321 334 325 333 332 271 273 266 183 179 195 202 178 165 174 170 193 192 197 199 200 200 199 204 209 215 224 229 229 234 234 233 233
269 270 274 281 284 289 290 290 296 300 306 314 319 334 334 342 353 353 342 336 265 189 189 186 174 182 198 182 199 197 198 203 205 212 208 210 209 214 223 223 229 222 234 232 232
277 272 281 284 285 285 286 290 296 300 304 314 315 328 325 327 330 340 325 315 289 224 197 190 192 200 193 198 196 195 211 206 208 214 217 215 212 216 223 233 238 237 239 232 230